Essays.club - TCC, Modelos de monografias, Trabalhos de universidades, Ensaios, Bibliografias
Pesquisar

Perfil de Salezio.Francisco

Dados pessoais

Nome: *** Data de nascimento: ***
Cidade: *** Data da última visita: ***
País: *** Cadastrado: ***

Doações

Ir para a página
Data Título Palavras Páginas Visualizações Avaliação
29/1/2018 CINZAS DO NORTE 3.806 16 613
29/1/2018 O Agravo de Petição 1.275 6 535
29/1/2018 O Caso dos exploradores de caverna 4.527 19 698
29/1/2018 O EXAME FISICO DO SISTEMA RESPIRATORIO 2.208 9 697
29/1/2018 Trabalho de Fundação 2.329 10 450
29/1/2018 ATIVIDADES PRÁTICAS SUPERVISIONADAS Administração de Recursos Humanos 2.014 9 592
29/1/2018 Arquitetura de computadores 807 4 633
28/1/2018 Acústica 1.933 8 486
28/1/2018 Parecer ADMINISTRATIVO 1.779 8 539
28/1/2018 Memoria de cálculo - caixa de sedimentação 917 4 1.531
28/1/2018 Resposta à acusação - furto 1.463 6 636
28/1/2018 Apelação 866 4 438
28/1/2018 Resenha filme Amistad 875 4 1.132
28/1/2018 A INAPLICABILIDADE DO ART 384 DA CLT EM FACE DO CONTEXTO CONSTITUCIONAL E A PROBLEMATIZAÇÃO DESTE COM A IGUALDADE 986 4 630
27/1/2018 Formação de conceitos 1.183 5 446
27/1/2018 PROJETO DE PESQUISA - DANO MORAL E AS RELAÇOES DE CONSUMO: UMA ANÁLISE ACERCA DA BANALIZAÇÃO DO DIREITO NA IDEOLOGIA SOCIAL. 2.186 9 852
27/1/2018 O SENTIDO LITERAL E LITERÁRIO DA BROCHADA: ANÁLISE DA CRONOLOGIA HISTÓRICA, FILOSÓFICA E LITERÁRIA NA OBRA BROCHADAS: CONFISSÕES SEXUAIS DE UM JOVEM ESCRITOR, DE JACQUES FUX. 2.598 11 746
27/1/2018 Briefing Saci Tintas 1.555 7 594
27/1/2018 APOSTILA EXCEL 5.528 23 671
27/1/2018 Game The suffering 1.387 6 657
27/1/2018 Trabalho de Finanças 14.324 58 447
26/1/2018 Estética Corporal 2.450 10 596
26/1/2018 Contabilidade de Custos 1.434 6 401
26/1/2018 Tabalho UNIP 2015 17.466 70 458
26/1/2018 Resumo Direito trabalho 1.388 6 859
26/1/2018 Trabalho de Legislação Trabalhista 1.727 7 481
26/1/2018 Estudo de caso RH 1.574 7 450
25/1/2018 Modelo de Parecer Jurídico 1.610 7 2.420
25/1/2018 Web Quest 2.060 9 737
25/1/2018 O Absolutismo Inglês 5.577 23 845
25/1/2018 Multiparentalidade 3.089 13 484
25/1/2018 Lista de Exercícios 899 4 442
25/1/2018 TRAJETÓRIA HISTÓRICA DA ESCOLARIZAÇÃO NO BRASIL 834 4 578
25/1/2018 RESENHA DO ARTIGO “MONARQUIA PLURICONTINENTAL” E “REPÚBLICAS” 1.000 4 559
25/1/2018 Mudanças na Educação 1.442 6 504
25/1/2018 Estratégias de vendas e negociação 5.247 21 457
25/1/2018 Filosofia do Direito 4.342 18 622
24/1/2018 Determinação de Tempo de Residência 2.784 12 517
24/1/2018 CONHECIMENTO SOBRE DST/AIDS COM ESTUDANTES EM UM COLÉGIO MUNICIPAL 1.170 5 578
24/1/2018 Capoeira como cultura popular 1.253 6 653
24/1/2018 Trabalho em grupo 4 semestre unopar administração 3.103 13 717
24/1/2018 Conclusão 1.612 7 484
24/1/2018 FILOSOFIA JURÍDICA 1.990 8 447
24/1/2018 Sindrome da Alienação Parental 11.850 48 638
24/1/2018 Resistencia dos materiais 2.077 9 542
24/1/2018 Panqueca fonte de proteína livre de glúten 5.245 21 583
24/1/2018 Estagio I 1.575 7 456
24/1/2018 Desenvolvimento Pessoal e Profissional , gestão de conhecimento 877 4 717
24/1/2018 Tráfico Internacional de Pessoas 1.862 8 558
24/1/2018 O Direito Processual 4.217 17 404

Ir para a página